Belmar-Farmingdale, NJ

4:22 PM EST on December 06, 2019 (GMT -0500)
Allaire

Weather History for KBLM - November, 2019

Change the Weather History Date:

Thursday, November 14, 2019

  Actual Average Record
Temperature  
Mean Temperature 34 °F -  
Max Temperature 46 °F 51 °F 71 °F (2011)
Min Temperature 21 °F 36 °F 26 °F (2004)
Degree Days  
Heating Degree Days 32    
Moisture  
Dew Point 21 °F    
Average Humidity 59    
Maximum Humidity 81    
Minimum Humidity 38    
Precipitation  
Precipitation 0.00 in - - ()
Sea Level Pressure  
Sea Level Pressure 30.39 in    
Wind  
Wind Speed 3 mph ()    
Max Wind Speed 12 mph    
Max Gust Speed 22 mph    
Visibility 10.0 miles    
Events      
Averages and records for this station are not official NWS values.
T = Trace of Precipitation, MM = Missing Value Source: Averaged Metar Reports

Daily Weather History Graph

Daily Weather History Graph

Search for Another Location

Airport or City:

Astronomy

Nov. 14, 2019 Rise Set
Actual Time 6:40 AM EST 4:40 PM EST
Civil Twilight 6:11 AM EST 5:09 PM EST
Nautical Twilight 5:38 AM EST 5:42 PM EST
Astronomical Twilight 5:06 AM EST 6:14 PM EST
Moon 6:24 PM EST (11/14) 8:33 AM EST (11/14)
Length of Visible Light 10h 58m
Length of Day
10h 00m
Waning Gibbous, 95% of the Moon is Illuminated
Nov 14
Waning Gibbous
Nov 19
Last Quarter
Nov 26
New
Dec 4
First Quarter
Dec 12
Full

Hourly Weather History & Observations

Time (EST) Temp. Windchill Dew Point Humidity Pressure Visibility Wind Dir Wind Speed Gust Speed Precip Events Conditions
12:56 AM 23.0 °F - 12.9 °F 65% 30.46 in 10.0 mi Calm Calm - N/A   Clear
1:56 AM 21.9 °F 17.2 °F 12.9 °F 68% 30.45 in 10.0 mi WNW 3.5 mph - N/A   Clear
2:56 AM 21.9 °F 17.2 °F 12.9 °F 68% 30.45 in 10.0 mi WNW 3.5 mph - N/A   Clear
3:56 AM 23.0 °F - 12.9 °F 65% 30.44 in 10.0 mi Calm Calm - N/A   Clear
4:56 AM 21.9 °F - 14.0 °F 72% 30.44 in 10.0 mi Calm Calm - N/A   Clear
5:56 AM 21.0 °F - 16.0 °F 81% 30.44 in 10.0 mi Calm Calm - N/A   Clear
6:56 AM 21.9 °F - 15.1 °F 75% 30.45 in 10.0 mi Calm Calm - N/A   Clear
7:56 AM 30.0 °F - 17.1 °F 59% 30.47 in 10.0 mi Calm Calm - N/A   Clear
8:56 AM 34.0 °F 29.8 °F 10.9 °F 38% 30.47 in 10.0 mi WSW 4.6 mph - N/A   Clear
9:56 AM 37.0 °F 33.3 °F 18.0 °F 46% 30.46 in 10.0 mi SW 4.6 mph - N/A   Clear
10:56 AM 41.0 °F 35.8 °F 21.9 °F 47% 30.44 in 10.0 mi SSW 8.1 mph - N/A   Clear
11:56 AM 42.1 °F 36.6 °F 23.0 °F 47% 30.41 in 10.0 mi WSW 9.2 mph - N/A   Clear
12:56 PM 44.1 °F 39.0 °F 23.0 °F 43% 30.38 in 10.0 mi South 9.2 mph - N/A   Clear
1:56 PM 46.0 °F 40.6 °F 21.9 °F 39% 30.35 in 10.0 mi SSW 11.5 mph 21.9 mph N/A   Clear
2:56 PM 46.0 °F 40.6 °F 24.1 °F 42% 30.35 in 10.0 mi SW 11.5 mph 19.6 mph N/A   Clear
3:56 PM 44.1 °F 40.1 °F 25.0 °F 47% 30.35 in 10.0 mi SW 6.9 mph - N/A   Clear
4:56 PM 43.0 °F 41.3 °F 25.0 °F 49% 30.35 in 10.0 mi SSW 3.5 mph - N/A   Clear
5:56 PM 42.1 °F 38.4 °F 26.1 °F 53% 30.35 in 10.0 mi SSW 5.8 mph - N/A   Clear
6:56 PM 39.9 °F 36.7 °F 28.0 °F 63% 30.33 in 10.0 mi SSW 4.6 mph - N/A   Clear
7:56 PM 39.0 °F 35.7 °F 28.0 °F 65% 30.32 in 10.0 mi SW 4.6 mph - N/A   Clear
8:56 PM 35.1 °F 31.0 °F 27.0 °F 72% 30.34 in 10.0 mi WSW 4.6 mph - N/A   Clear
9:56 PM 36.0 °F 33.3 °F 28.0 °F 73% 30.33 in 10.0 mi SSW 3.5 mph - N/A   Clear
10:56 PM 36.0 °F 32.1 °F 28.0 °F 73% 30.33 in 10.0 mi SW 4.6 mph - N/A   Clear
11:56 PM 34.0 °F 31.0 °F 27.0 °F 75% 30.32 in 10.0 mi West 3.5 mph - N/A   Clear